This is the latest recevied weather packets stored in our database for station/object W4MLN-3. If no packets are shown the sender has not sent any weather packets the latest 10 day(s).
| Time | Temp. | Humidity | Pressure | Rain* | Wind** | Luminosity | Snow |
|---|---|---|---|---|---|---|---|
| 1787749204 | 17.78° C | 90% | 1021.7 hPa | 0 mm | - | - | - |
| 1787748904 | 17.22° C | 93% | 1021.7 hPa | 0 mm | - | - | - |
| 1787748604 | 17.22° C | 96% | 1021.7 hPa | 0 mm | - | - | - |
| 1787748303 | 16.67° C | 97% | 1021.8 hPa | 0 mm | - | - | - |
| 1787748003 | 16.11° C | 97% | 1021.9 hPa | 0 mm | - | - | - |
| 1787747703 | 16.11° C | 97% | 1021.9 hPa | 0 mm | - | - | - |
| 1787747404 | 15.56° C | 97% | 1021.9 hPa | 0 mm | - | - | - |
| 1787747104 | 15.56° C | 97% | 1021.9 hPa | 0 mm | - | - | - |
| 1787746804 | 15° C | 97% | 1021.9 hPa | 0 mm | - | - | - |
| 1787746503 | 15° C | 97% | 1021.9 hPa | 0 mm | - | - | - |
| 1787746204 | 14.44° C | 96% | 1021.8 hPa | 0 mm | - | - | - |
| 1787745904 | 14.44° C | 96% | 1021.9 hPa | 0 mm | - | - | - |
| 1787745603 | 14.44° C | 96% | 1021.9 hPa | 0 mm | - | - | - |
| 1787745304 | 13.89° C | 96% | 1021.7 hPa | 0 mm | - | - | - |
| 1787745003 | 13.89° C | 95% | 1021.7 hPa | 0 mm | - | - | - |
| 1787744703 | 13.89° C | 95% | 1021.6 hPa | 0 mm | - | - | - |
| 1787744403 | 13.89° C | 95% | 1021.6 hPa | 0 mm | - | - | - |
| 1787744103 | 13.89° C | 95% | 1021.5 hPa | 0 mm | - | - | - |
| 1787743803 | 13.89° C | 95% | 1021.5 hPa | 0 mm | - | - | - |
| 1787743504 | 13.89° C | 95% | 1021.5 hPa | 0 mm | - | - | - |
| 1787743203 | 13.33° C | 94% | 1021.5 hPa | 0 mm | - | - | - |
| 1787742924 | 13.33° C | 94% | 1021.5 hPa | 0 mm | - | - | - |
| 1787742603 | 13.33° C | 94% | 1021.3 hPa | 0 mm | - | - | - |
| 1787742303 | 13.89° C | 94% | 1021.3 hPa | 0 mm | - | - | - |
| 1787742003 | 13.89° C | 94% | 1021.3 hPa | 0 mm | - | - | - |
* Rain latest hour (hover to see other rain measurements)
** Current wind speed in m/s (hover to see current wind gust speed)